Overview Statistics Trail Chart Weather Telemetry Raw packets
 

This is the latest recevied weather packets stored in our database for station/object KJ5PEC-13. If no packets are shown the sender has not sent any weather packets the latest 10 day(s).

<< 2 3 4 5 6 7 8 >>
Time Temp. Humidity Pressure Rain* Wind** Luminosity Snow
1788551174 23.89° C 27% 1029 hPa 0 mm - 1029 W/m² -
1788550869 23.89° C 28% 1029.1 hPa 0 mm - 164 W/m² -
1788550563 25.56° C 25% 1029.3 hPa 0 mm - 148 W/m² -
1788550260 25.56° C 25% 1028.9 hPa 0 mm - 259 W/m² -
1788549959 26.11° C 25% 1029.4 hPa 0 mm - 177 W/m² -
1788549655 25° C 27% 1029.4 hPa 0 mm - 1021 W/m² -
1788549352 25° C 26% 1029.3 hPa 0 mm - 1056 W/m² -
1788549048 25° C 26% 1029.4 hPa 0 mm - 1062 W/m² -
1788548743 24.44° C 28% 1029.3 hPa 0 mm - 1043 W/m² -
1788548439 24.44° C 27% 1029.4 hPa 0 mm - 801 W/m² -
1788548136 25.56° C 26% 1029.4 hPa 0 mm - 245 W/m² -
1788547831 25° C 26% 1029.4 hPa 0 mm - 948 W/m² -
1788547531 24.44° C 26% 1029.7 hPa 0 mm - 932 W/m² -
1788547226 25° C 27% 1029.7 hPa 0 mm - 928 W/m² -
1788546921 25° C 27% 1029.3 hPa 0 mm - 935 W/m² -
1788546616 25° C 27% 1029.7 hPa 0 mm - 921 W/m² -
1788546312 24.44° C 27% 1029.8 hPa 0 mm - 923 W/m² -
1788546012 25° C 27% 1029.8 hPa 0 mm - 919 W/m² -
1788545708 25° C 26% 1029.9 hPa 0 mm - 911 W/m² -
1788545407 25° C 26% 1030.1 hPa 0 mm - 905 W/m² -
1788545107 25.56° C 26% 1030.2 hPa 0 mm - 900 W/m² -
1788544802 25° C 26% 1029.9 hPa 0 mm - 896 W/m² -
1788544496 25° C 27% 1030.2 hPa 0 mm - 889 W/m² -
1788544195 24.44° C 26% 1030.1 hPa 0 mm - 882 W/m² -
1788543890 25° C 27% 1030.3 hPa 0 mm - 871 W/m² -

* Rain latest hour (hover to see other rain measurements)
** Current wind speed in m/s (hover to see current wind gust speed)